OK2ARM-6 Weather Reports


time (UTC)temp
F
wind
direction
speed
knots
gust
knots
rain 1hr
in
rain 24hr
in
rain mn
in
humidity
%
barometer
mb
20260503020751 37 0.0 0.0 0.00 0.00 0.00 100 1019.2
20260503015751 38 0.0 0.0 0.00 0.00 0.00 100 1019.3
20260503014752 38 0.0 0.0 0.00 0.00 0.00 100 1019.3
20260503013751 38 0.0 0.0 0.00 0.00 0.00 100 1019.3
20260503011527 39 0.0 0.0 0.00 0.00 0.00 100 1019.3
20260503010527 39 0.0 0.0 0.00 0.00 0.00 100 1019.3
20260503005527 39 0.0 0.0 0.00 0.00 0.00 100 1019.4
20260503004527 39 0.0 0.0 0.00 0.00 0.00 100 1019.5
20260503003528 40 0.0 0.0 0.00 0.00 0.00 100 1019.5
20260503002527 40 0.0 0.0 0.00 0.00 0.00 100 1019.6
20260503001527 40 0.0 0.0 0.00 0.00 0.00 100 1019.6
20260503000527 40 0.0 0.0 0.00 0.00 0.00 100 1019.7
20260502233040 42 0.0 0.0 0.00 0.00 0.00 100 1019.9
20260502232040 43 0.0 0.0 0.00 0.00 0.00 100 1019.9
20260502231040 43 0.0 0.0 0.00 0.00 0.00 100 1020.0
20260502224815 44 0.0 0.0 0.00 0.00 0.00 100 1020.2
20260502222550 45 0.0 0.0 0.00 0.00 0.00 100 1020.2
20260502221550 45 0.0 0.0 0.00 0.00 0.00 100 1020.2
20260502220550 45 0.0 0.0 0.00 0.00 0.00 100 1020.2
20260502215550 46 0.0 0.0 0.00 0.00 0.00 100 1020.2
20260502214550 46 0.0 0.0 0.00 0.00 0.00 100 1020.3
20260502213550 47 0.0 0.0 0.00 0.00 0.00 100 1020.2
20260502212550 47 0.0 0.0 0.00 0.00 0.00 100 1020.3
20260502211550 48 0.0 0.0 0.00 0.00 0.00 100 1020.3
20260502210550 48 0.0 0.0 0.00 0.00 0.00 100 1020.4
20260502205550 49 0.0 0.0 0.00 0.00 0.00 100 1020.4
20260502204550 50 0.0 0.0 0.00 0.00 0.00 100 1020.4
20260502203550 50 0.0 0.0 0.00 0.00 0.00 100 1020.5
20260502202550 51 0.0 0.0 0.00 0.00 0.00 100 1020.6
20260502201550 52 0.0 0.0 0.00 0.00 0.00 100 1020.6
20260502200550 53 0.0 0.0 0.00 0.00 0.00 100 1020.7
20260502194326 55 0.0 0.0 0.00 0.00 0.00 100 1020.8
20260502193326 56 0.0 0.0 0.00 0.00 0.00 100 1020.7
20260502192326 57 0.0 0.0 0.00 0.00 0.00 100 1020.7
20260502191326 58 0.0 0.0 0.00 0.00 0.00 100 1020.7
20260502190327 59 0.0 0.0 0.00 0.00 0.00 100 1020.6
20260502185326 60 0.0 0.0 0.00 0.00 0.00 100 1020.5
20260502184326 61 0.0 0.0 0.00 0.00 0.00 100 1020.5
20260502183326 62 0.0 0.0 0.00 0.00 0.00 100 1020.4
20260502181101 66 0.0 0.0 0.00 0.00 0.00 100 1020.1
20260502164102 77 0.0 0.0 0.00 0.00 0.00 100 1020.5
20260502163102 80 0.0 0.0 0.00 0.00 0.00 100 1020.5
20260502162102 77 0.0 0.0 0.00 0.00 0.00 100 1020.7
20260502161101 79 0.0 0.0 0.00 0.00 0.00 100 1020.8
20260502151612 83 0.0 0.0 0.00 0.00 0.00 100 1021.4
20260502150613 85 0.0 0.0 0.00 0.00 0.00 1021.5
20260502140125 86 0.0 0.0 0.00 0.00 0.00 100 1022.1
20260502122901 84 0.0 0.0 0.00 0.00 0.00 100 1023.1
20260502121901 81 0.0 0.0 0.00 0.00 0.00 100 1023.3
20260502120901 83 0.0 0.0 0.00 0.00 0.00 100 1023.3
20260502115901 78 0.0 0.0 0.00 0.00 0.00 100 1023.4
20260502114900 76 0.0 0.0 0.00 0.00 0.00 100 1023.5
20260502113900 75 0.0 0.0 0.00 0.00 0.00 100 1023.7
20260502112900 77 0.0 0.0 0.00 0.00 0.00 100 1023.8
20260502111901 76 0.0 0.0 0.00 0.00 0.00 100 1024.0
20260502110901 75 0.0 0.0 0.00 0.00 0.00 100 1024.1
20260502105900 75 0.0 0.0 0.00 0.00 0.00 100 1024.3
20260502104901 75 0.0 0.0 0.00 0.00 0.00 100 1024.3
20260502103900 75 0.0 0.0 0.00 0.00 0.00 100 1024.4
20260502102900 75 0.0 0.0 0.00 0.00 0.00 100 1024.5
20260502101901 75 0.0 0.0 0.00 0.00 0.00 100 1024.7
20260502100901 71 0.0 0.0 0.00 0.00 0.00 100 1024.7
20260502071149 58 0.0 0.0 0.00 0.00 0.00 100 1026.0
20260502070149 57 0.0 0.0 0.00 0.00 0.00 100 1025.9
20260502065149 55 0.0 0.0 0.00 0.00 0.00 100 1026.0
20260502064150 54 0.0 0.0 0.00 0.00 0.00 100 1026.1
20260502063149 52 0.0 0.0 0.00 0.00 0.00 100 1026.0
20260502062149 50 0.0 0.0 0.00 0.00 0.00 100 1026.0
20260502061149 49 0.0 0.0 0.00 0.00 0.00 100 1026.1
20260502060149 47 0.0 0.0 0.00 0.00 0.00 100 1026.1
20260502055149 45 0.0 0.0 0.00 0.00 0.00 100 1026.0
20260502052926 41 0.0 0.0 0.00 0.00 0.00 100 1026.0
20260502051925 39 0.0 0.0 0.00 0.00 0.00 100 1026.1
20260502050925 37 0.0 0.0 0.00 0.00 0.00 100 1026.0
20260502045925 36 0.0 0.0 0.00 0.00 0.00 100 1026.0
20260502044925 35 0.0 0.0 0.00 0.00 0.00 100 1025.9
20260502043925 35 0.0 0.0 0.00 0.00 0.00 100 1026.0
20260502041701 34 0.0 0.0 0.00 0.00 0.00 100 1025.8
20260502035438 34 0.0 0.0 0.00 0.00 0.00 100 1025.8
20260502034438 34 0.0 0.0 0.00 0.00 0.00 6 1025.8
20260502033438 34 0.0 0.0 0.00 0.00 0.00 17 1025.8
20260502032437 34 0.0 0.0 0.00 0.00 0.00 100 1025.7
20260502031438 34 0.0 0.0 0.00 0.00 0.00 100 1025.7
20260502030438 35 0.0 0.0 0.00 0.00 0.00 100 1025.8
20260502025438 35 0.0 0.0 0.00 0.00 0.00 100 1025.8
20260502024438 36 0.0 0.0 0.00 0.00 0.00 100 1025.8
20260502023438 35 0.0 0.0 0.00 0.00 0.00 100 1025.9